sat.trackr.live / text

‹ back to catalog

STARLINK-37240

NORAD 69031 · 2026-101G

PAYLOAD ACTIVE UNKNOWN

§ Identity

Operator
Country
US
Launch date
2026-05-06
Launch site
AFWTR
Launch vehicle
Mass (kg)
RCS (m²)

Purposes: comms

External: N2YO · Heavens-Above · Gunter

§ Orbital elements

Epoch: 2026-05-25T03:30:34.062912Z

Period
91.41 min
Inclination
97.2846°
Eccentricity
0.0002083
Mean motion
15.75241679 rev/d
Perigee alt
342.5 km
Apogee alt
345.3 km
Semi-major
6,722.1 km
B*
1.2523e-3
RAAN
359.9003°
Arg perigee
70.5967°
Mean anomaly
289.5523°
Rev number
301

§ Raw data

STARLINK-372401 69031U 26101G   26145.14622758  .00191328  00000+0  12523-2 0  99902 69031  97.2846 359.9003 0002083  70.5967 289.5523 15.75241679  3018

JSON: /api/v1/satellites/69031 · /tle

For live sub-satellite position, see the globe view (requires WebGL).

§ Visibility from observer

Set your observer location to see the next 7 days of passes ≥ 10°. The values pass through the URL so the page stays shareable.

No JS? Fill the form by hand. The geolocation button needs JavaScript.